Location: Luz Observatory
(34.5000°N, 117.2833°W)
Time: 08:52:00
(UTC-07:00)

Cosmos 1484 Rocket - Visible Passes

Search period start: 29 April 2016 00:00
Search period end: 09 May 2016 00:00
Orbit: 508 x 565 km, 97.4° (Epoch: 28 April)

Date Brightness Start Highest point End Pass type
(mag) Time Alt. Az. Time Alt. Az. Time Alt. Az.
04 May 5.9 20:26:21 10° WSW 20:28:01 12° W 20:29:40 10° WNW visible
05 May 5.7 20:17:09 10° SW 20:19:32 16° W 20:21:55 10° NW visible
06 May 5.5 20:08:13 10° SW 20:11:04 20° W 20:13:55 10° NW visible
